Location: Big Sandy Campground
(37.4666°N, 119.5821°W)
Time: 13:27:00
(UTC+00:00)

Cosmos 2278 Rocket - Pass Details

Date: 03 August 2024
Orbit: 841 x 844 km, 71.0° (Epoch: 15 September)

Event Time Altitude Azimuth Distance (km) Brightness Sun altitude
Rises 12:06:46 0° 340° (NNW) 3,403 5.5 -11.0°
Reaches altitude 10° 12:09:15 10° 343° (NNW) 2,465 4.8 -10.6°
Maximum altitude 12:14:53 69° 66° (ENE) 899 2.6 -9.7°
Drops below altitude 10° 12:20:30 10° 150° (SSE) 2,453 4.6 -8.7°
Sets 12:22:57 0° 153° (SSE) 3,385 5.3 -8.3°
